TimeCST,TemperatureF,Dew PointF,Humidity,Sea Level PressureIn,VisibilityMPH,Wind Direction,Wind SpeedMPH,Gust SpeedMPH,PrecipitationIn,Events,Conditions,WindDirDegrees,DateUTC
12:15 AM,17.6,12.2,79,30.04,10.0,SE,4.6,-,N/A,,Clear,130,2014-03-07 06:15:00
12:35 AM,17.6,12.2,79,30.04,10.0,SE,6.9,-,N/A,,Clear,130,2014-03-07 06:35:00
12:55 AM,17.6,10.4,73,30.03,10.0,SE,6.9,-,N/A,,Clear,140,2014-03-07 06:55:00
1:15 AM,15.8,10.4,79,30.04,10.0,ESE,3.5,-,N/A,,Clear,120,2014-03-07 07:15:00
1:35 AM,15.8,12.2,86,30.03,10.0,SE,6.9,-,N/A,,Clear,130,2014-03-07 07:35:00
1:55 AM,19.4,15.8,86,30.02,10.0,SE,8.1,-,N/A,,Clear,130,2014-03-07 07:55:00
2:15 AM,19.4,14.0,80,30.01,8.0,SE,8.1,-,N/A,,Clear,140,2014-03-07 08:15:00
2:35 AM,19.4,14.0,80,30.00,7.0,Calm,Calm,-,N/A,,Clear,0,2014-03-07 08:35:00
2:55 AM,17.6,12.2,79,29.99,7.0,Calm,Calm,-,N/A,,Clear,0,2014-03-07 08:55:00
3:15 AM,17.6,12.2,79,29.98,6.0,Calm,Calm,-,N/A,,Clear,0,2014-03-07 09:15:00
3:35 AM,17.6,12.2,79,29.99,6.0,SSE,3.5,-,N/A,,Clear,150,2014-03-07 09:35:00
3:55 AM,17.6,12.2,79,29.99,6.0,Calm,Calm,-,N/A,,Clear,0,2014-03-07 09:55:00
4:15 AM,12.2,8.6,85,29.98,5.0,ESE,4.6,-,N/A,,Clear,120,2014-03-07 10:15:00
4:35 AM,12.2,8.6,85,29.97,5.0,ESE,4.6,-,N/A,,Clear,120,2014-03-07 10:35:00
4:55 AM,15.8,12.2,86,29.96,5.0,SE,4.6,-,N/A,,Clear,130,2014-03-07 10:55:00
5:15 AM,12.2,6.8,79,29.96,5.0,ESE,3.5,-,N/A,,Clear,120,2014-03-07 11:15:00
5:35 AM,12.2,6.8,79,29.97,4.0,Calm,Calm,-,N/A,,Clear,0,2014-03-07 11:35:00
5:55 AM,14.0,10.4,86,29.96,5.0,Calm,Calm,-,N/A,,Clear,0,2014-03-07 11:55:00
6:15 AM,17.6,12.2,79,29.96,5.0,Calm,Calm,-,N/A,,Clear,0,2014-03-07 12:15:00
6:35 AM,15.8,10.4,79,29.96,3.0,Calm,Calm,-,N/A,,Clear,0,2014-03-07 12:35:00
6:55 AM,15.8,14.0,93,29.96,4.0,SE,3.5,-,N/A,,Clear,130,2014-03-07 12:55:00
7:15 AM,17.6,10.4,73,29.97,4.0,Calm,Calm,-,N/A,,Clear,0,2014-03-07 13:15:00
7:35 AM,19.4,17.6,93,29.96,5.0,SE,4.6,-,N/A,,Clear,130,2014-03-07 13:35:00
7:55 AM,19.4,10.4,68,29.95,4.0,SSE,3.5,-,N/A,,Clear,160,2014-03-07 13:55:00
8:15 AM,26.6,19.4,74,29.95,5.0,Calm,Calm,-,N/A,,Clear,0,2014-03-07 14:15:00
8:35 AM,28.4,21.2,74,29.94,6.0,South,4.6,-,N/A,,Clear,190,2014-03-07 14:35:00
8:55 AM,32.0,23.0,69,29.94,6.0,South,3.5,-,N/A,,Clear,190,2014-03-07 14:55:00
9:15 AM,33.8,24.8,70,29.94,7.0,South,3.5,-,N/A,,Clear,190,2014-03-07 15:15:00
9:35 AM,35.6,24.8,65,29.94,7.0,South,3.5,-,N/A,,Clear,190,2014-03-07 15:35:00
9:55 AM,35.6,24.8,65,29.93,8.0,South,3.5,-,N/A,,Clear,190,2014-03-07 15:55:00
10:15 AM,39.2,26.6,61,29.93,7.0,SSW,4.6,-,N/A,,Clear,210,2014-03-07 16:15:00
10:35 AM,37.4,26.6,65,29.93,8.0,South,4.6,-,N/A,,Clear,190,2014-03-07 16:35:00
10:55 AM,39.2,26.6,61,29.92,9.0,South,5.8,-,N/A,,Clear,180,2014-03-07 16:55:00
11:15 AM,39.2,26.6,61,29.91,8.0,South,6.9,-,N/A,,Clear,180,2014-03-07 17:15:00
11:35 AM,41.0,28.4,61,29.91,9.0,South,6.9,-,N/A,,Clear,180,2014-03-07 17:35:00
11:55 AM,41.0,26.6,57,29.91,10.0,SSW,3.5,-,N/A,,Clear,200,2014-03-07 17:55:00
12:15 PM,42.8,28.4,57,29.91,10.0,Calm,Calm,-,N/A,,Clear,0,2014-03-07 18:15:00
12:35 PM,42.8,28.4,57,29.89,10.0,South,4.6,-,N/A,,Clear,190,2014-03-07 18:35:00
12:55 PM,42.8,28.4,57,29.89,10.0,SSW,3.5,-,N/A,,Clear,200,2014-03-07 18:55:00
1:15 PM,42.8,28.4,57,29.88,10.0,South,6.9,-,N/A,,Clear,180,2014-03-07 19:15:00
1:35 PM,42.8,28.4,57,29.87,10.0,Calm,Calm,-,N/A,,Clear,0,2014-03-07 19:35:00
1:55 PM,42.8,28.4,57,29.88,10.0,SW,3.5,-,N/A,,Clear,220,2014-03-07 19:55:00
2:15 PM,44.6,30.2,57,29.87,10.0,WSW,3.5,-,N/A,,Clear,240,2014-03-07 20:15:00
2:35 PM,44.6,30.2,57,29.87,10.0,WSW,4.6,-,N/A,,Clear,250,2014-03-07 20:35:00
2:55 PM,42.8,30.2,61,29.87,10.0,WSW,4.6,-,N/A,,Clear,240,2014-03-07 20:55:00
3:15 PM,42.8,30.2,61,29.87,9.0,SW,3.5,-,N/A,,Clear,230,2014-03-07 21:15:00
3:35 PM,44.6,30.2,57,29.88,8.0,SW,3.5,-,N/A,,Clear,220,2014-03-07 21:35:00
3:55 PM,44.6,30.2,57,29.88,8.0,SW,4.6,-,N/A,,Clear,220,2014-03-07 21:55:00
4:15 PM,42.8,30.2,61,29.87,9.0,SW,3.5,-,N/A,,Clear,220,2014-03-07 22:15:00
4:35 PM,42.8,30.2,61,29.87,8.0,SW,3.5,-,N/A,,Clear,220,2014-03-07 22:35:00
4:55 PM,41.0,30.2,65,29.88,9.0,SW,3.5,-,N/A,,Clear,220,2014-03-07 22:55:00
5:15 PM,39.2,30.2,70,29.89,7.0,WSW,3.5,-,N/A,,Clear,250,2014-03-07 23:15:00
5:35 PM,37.4,30.2,75,29.90,6.0,West,4.6,-,N/A,,Clear,270,2014-03-07 23:35:00
5:55 PM,37.4,30.2,75,29.91,7.0,West,3.5,-,N/A,,Clear,260,2014-03-07 23:55:00
6:15 PM,37.4,30.2,75,29.91,7.0,West,6.9,-,N/A,,Clear,280,2014-03-08 00:15:00
6:35 PM,37.4,30.2,75,29.92,9.0,WNW,3.5,-,N/A,,Clear,290,2014-03-08 00:35:00
6:55 PM,37.4,30.2,75,29.93,8.0,West,4.6,-,N/A,,Scattered Clouds,280,2014-03-08 00:55:00
7:15 PM,39.2,30.2,70,29.94,9.0,WNW,4.6,-,N/A,,Partly Cloudy,290,2014-03-08 01:15:00
7:35 PM,37.4,30.2,75,29.94,7.0,WNW,3.5,-,N/A,,Partly Cloudy,290,2014-03-08 01:35:00
7:55 PM,37.4,30.2,75,29.95,7.0,Calm,Calm,-,N/A,,Partly Cloudy,0,2014-03-08 01:55:00
8:15 PM,37.4,30.2,75,29.95,6.0,Calm,Calm,-,N/A,,Partly Cloudy,0,2014-03-08 02:15:00
8:35 PM,35.6,30.2,81,29.96,5.0,West,5.8,-,N/A,,Clear,280,2014-03-08 02:35:00
8:55 PM,37.4,32.0,81,29.96,6.0,NW,5.8,-,N/A,,Partly Cloudy,310,2014-03-08 02:55:00
9:15 PM,37.4,32.0,81,29.97,5.0,WNW,5.8,-,N/A,,Clear,290,2014-03-08 03:15:00
9:35 PM,35.6,32.0,87,29.98,5.0,WNW,5.8,-,N/A,,Clear,300,2014-03-08 03:35:00
9:55 PM,35.6,32.0,87,29.98,5.0,WNW,4.6,-,N/A,,Mostly Cloudy,290,2014-03-08 03:55:00
10:15 PM,35.6,30.2,81,29.98,4.0,WNW,3.5,-,N/A,,Mostly Cloudy,300,2014-03-08 04:15:00
10:35 PM,35.6,30.2,81,29.98,4.0,NNW,5.8,-,N/A,,Partly Cloudy,330,2014-03-08 04:35:00
10:55 PM,35.6,32.0,87,29.98,4.0,NNW,5.8,-,N/A,,Partly Cloudy,340,2014-03-08 04:55:00
11:15 PM,35.6,32.0,87,29.99,4.0,NNW,6.9,-,N/A,,Partly Cloudy,330,2014-03-08 05:15:00
11:35 PM,35.6,32.0,87,29.99,4.0,NNW,8.1,-,N/A,,Clear,330,2014-03-08 05:35:00
11:55 PM,35.6,32.0,87,29.99,4.0,NNW,10.4,-,N/A,,Clear,340,2014-03-08 05:55:00